SCP
0 0 0 0 0 0 0 0 0 0 0 0 0 0 0 0 0 0 0 0 0 0 0 0 0 0 -0 0 0 -0 0 -0 0 0 -0 -0 -0 -0 0 0 0 0 0 0 -0
0 0 0 0 0 0 0 0 0 0 0 0 0 0 0 0 0 0 0 0 0 0 0 -0 -0 -0 0 0 0 0 0 0 0 0 0 0 0 0 0 0 0 0 0 -0 -0
0 0 0 0 0 0 0 0 0 0 0 0 0 0 0 0 0 0 0 0 0 0 0 0 0 0 0 0 0 0 0 0 0 0 0 0 0 0 0 0 0 -0 -0 -0 -0
0 0 0 0 0 0 0 0 0 0 0 0 0 0 0 0 -0 0 0 0 0 0 0 0 0 -0 0 0 0 0 0 0 0 0 0 0 0 0 0 0 0 0 -0 -0 -0
0 0 0 0 0 0 0 0 0 0 0 0 0 0 0 0 0 0 0 0 0 0 0 0 0 0 0 0 0 0 0 0 0 0 0 0 0 0 0 -0 0 0 -0 -0 -0
0 0 0 0 0 0 0 0 0 0 0 0 0 0 0 0 0 0 0 0 0 0 0 0 0 0 0 0 0 0 -0 -0 -0 0 0 0 0 0 0 0 0 -0 -0 -0 -0
0 0 0 0 0 0 0 0 0 0 0 0 0 0 0 0 0 0 0 0 0 0 0 0 0 0 0 0 0 -0 0 -0 -0 -0 0 0 -0 0 0 0 0 -0 0 -0 -0
0 0 0 0 0 0 0 0 0 0 0 0 0 0 0 0 0 0 0 -0 0 0 0 0 0 0 0 0 0 -0 -0 0 0 0 0 -0 -0 -0 0 0 0 0 -0 -0 -0
0 0 0 0 0 0 0 0 0 0 0 0 0 0 0 0 0 0 0 0 0 0 0 0 0 0 -0 0 0 -0 -0 0 -0 0 0 0 0 0 0 -0 0 -0 -0 -0 -0
0 0 0 0 0 0 0 0 0 0 0 0 0 0 0 0 0 0 0 0 0 0 0 0 0 0 0 0 0 0 0 0 0 0 0 0 0 0 0 0 0 0 -0 0 0
0 0 0 0 0 0 0 0 0 0 0 0 0 0 0 0 0 0 0 0 0 0 0 0 0 0 -0 -0 0 0 -0 0 0 0 0 0 0 0 0 0 0 0 0 0 0
0 0 0 0 0 0 0 0 0 0 0 0 0 0 0 0 0 -0 -0 0 0 0 0 0 -0 0 0 -0 0 0 0 0 0 0 0 0 0 0 0 0 0 0 0 0 0
0 0 0 0 0 0 0 0 0 0 0 0 0 0 0 0 -0 -0 -0 0 -0 -0 0 0 0 0 0 0 0 0 0 0 0 0 0 0 0 0 0 0 0 0 0 0 0
0 0 0 0 0 0 0 0 0 0 0 0 0 0 0 0 -0 -0 -0 0 0 -0 -0 0 0 0 0 0 0 0 0 0 0 0 0 0 0 0 0 0 0 0 0 0 0
0 0 0 0 0 0 0 0 0 0 0 0 -0 -0 -0 0 0 -0 0 0 0 0 0 0 0 0 0 0 0 0 0 0 0 0 0 0 0 0 0 0 0 0 0 0 0
0 0 0 0 0 0 0 0 0 0 0 -0 0 0 0 -0 0 0 0 0 0 0 0 0 0 0 0 0 0 0 0 0 0 0 0 0 0 0 0 0 0 0 0 0 0
0 0 0 0 0 0 0 0 0 0 0 0 0 0 0 0 0 0 0 0 0 0 0 0 0 0 0 0 0 0 0 0 0 0 0 0 0 0 0 0 0 0 0 0 0
0 0 0 0 0 0 0 0 0 0 0 0 0 0 0 0 0 0 0 0 -0 0 0 0 0 0 0 0 0 0 0 0 0 0 0 0 0 0 0 0 0 0 0 0 0
0 0 0 0 0 0 -0 0 0 0 0 0 0 0 0 0 0 0 0 0 -0 -0 0 0 0 0 0 0 0 0 0 0 0 0 0 0 0 0 0 0 0 0 0 0 0
0 0 0 0 0 0 0 0 0 0 0 0 0 0 0 0 0 0 0 0 0 -0 -0 0 0 0 0 0 0 0 0 0 0 0 0 0 0 0 0 0 0 0 0 0 0
0 0 0 0 0 0 0 0 0 0 0 0 0 0 0 0 0 0 -0 -0 0 0 0 0 0 0 0 0 0 0 0 0 0 0 0 0 0 0 0 0 0 0 0 0 0
0 0 0 0 0 0 0 0 0 0 0 0 0 0 0 0 -0 -0 -0 0 0 0 0 0 0 0 0 0 0 0 0 0 0 0 0 0 0 0 0 0 0 0 0 0 0
0 0 0 0 0 0 0 0 0 0 0 0 0 0 0 -0 -0 -0 -0 0 0 -0 0 0 0 0 0 0 0 0 0 0 0 0 0 0 0 0 0 0 0 0 0 0 0
0 0 0 0 0 0 0 0 0 0 0 0 0 0 -0 0 0 -0 -0 0 0 0 0 0 0 0 0 0 0 0 0 0 0 0 0 0 0 0 0 0 0 0 0 0 0
0 0 0 0 0 0 0 0 0 0 0 0 0 0 0 0 0 0 0 0 0 0 0 0 0 0 0 0 0 0 0 0 0 0 0 0 0 0 0 0 0 0 0 0 0
0 0 0 0 0 0 0 0 0 0 0 0 0 0 0 0 0 0 0 0 0 0 0 0 0 0 0 0 0 0 0 0 0 0 0 0 0 0 0 0 0 0 0 0 0
0 0 0 0 0 0 0 0 0 0 0 0 -0 0 0 0 0 0 0 0 0 0 0 0 0 0 0 0 0 0 0 0 0 0 0 0 0 0 0 0 0 0 0 0 0
Wind_Speed_500mb
28 26 23 25 25 23 21 19 20 23 21 22 16 13 18 21 20 20 13 11 12 6 7 2 5 14 16 9 7 5 12 17 16 17 18 16 13 8 5 16 7 6 8 19 38
23 23 23 24 25 23 21 21 25 27 26 22 15 18 30 26 21 18 20 18 12 7 7 13 21 16 12 8 4 3 11 10 7 10 21 16 7 13 10 13 11 14 10 25 39
20 20 23 25 23 21 22 26 31 30 27 19 15 26 27 18 10 16 17 21 14 11 21 25 27 15 17 12 5 5 16 17 14 14 12 14 13 9 9 13 14 15 19 32 37
19 19 20 19 21 23 29 35 34 32 23 17 18 24 18 4 6 8 14 19 18 26 28 18 12 12 9 15 15 23 17 11 13 12 10 12 8 8 11 14 7 9 18 31 35
16 14 16 20 24 31 37 38 37 29 20 17 20 25 20 15 11 7 9 13 17 19 16 16 16 15 15 25 28 26 18 14 10 13 7 4 5 3 7 9 7 15 22 26 25
13 16 20 25 32 39 41 41 35 25 18 17 22 24 16 16 13 14 4 7 11 11 11 8 7 18 19 13 4 14 15 11 9 10 4 7 5 6 10 6 12 16 20 25 24
15 20 27 35 42 43 44 41 31 24 18 21 24 24 14 10 12 10 2 5 7 11 10 16 17 3 12 19 11 20 21 13 13 6 4 7 16 11 7 1 6 12 20 26 29
26 32 38 43 44 45 44 37 31 23 20 24 32 21 12 10 5 5 8 12 11 12 17 22 24 17 7 17 10 9 9 12 14 4 5 11 17 14 9 13 16 16 13 31 36
31 35 38 41 43 46 42 36 27 20 20 24 22 12 13 6 3 3 21 13 14 18 18 18 16 12 9 13 13 5 4 3 12 8 8 5 6 8 19 21 25 24 21 28 36
32 35 37 39 43 42 38 31 22 20 23 19 14 16 6 8 8 12 18 19 11 17 10 4 5 9 6 8 1 4 4 4 6 8 11 8 8 10 22 16 5 9 15 22 30
35 36 36 38 39 38 36 32 18 14 15 10 14 17 10 6 23 9 17 15 10 8 5 10 5 12 15 14 9 3 4 5 2 6 17 3 5 16 19 18 15 11 11 17 23
33 33 34 36 37 36 28 10 15 26 23 21 21 20 25 19 15 22 10 4 3 8 5 8 14 11 10 9 2 3 5 3 2 1 9 5 7 14 21 24 21 22 24 23 25
31 32 29 31 29 25 22 20 32 20 16 15 16 10 5 20 19 23 15 9 15 13 8 7 12 6 1 8 8 2 3 8 11 12 6 5 13 11 13 22 25 28 28 27 24
27 23 25 27 23 30 25 24 22 11 6 6 3 8 7 4 11 21 11 4 6 16 15 14 6 4 3 7 13 4 5 17 15 12 6 4 8 12 8 18 20 19 20 21 19
26 21 19 15 25 16 21 18 17 5 5 1 8 8 15 8 2 24 16 14 11 9 8 7 7 6 8 7 10 9 15 11 6 10 8 7 11 14 7 14 15 22 21 20 16
27 22 16 16 20 21 17 12 8 5 6 7 3 9 14 23 13 10 14 19 7 13 19 12 5 7 9 4 3 10 7 2 2 4 8 3 9 11 4 7 11 16 22 22 19
29 24 19 17 17 21 14 8 7 5 3 12 11 9 14 11 14 20 25 22 8 5 4 7 9 5 14 9 8 16 5 4 5 7 2 2 11 16 12 12 15 19 22 22 20
31 25 20 17 19 19 13 5 7 4 3 6 10 15 9 7 12 12 9 18 25 12 6 5 7 16 19 10 12 12 11 6 5 4 4 6 7 13 15 17 20 19 17 16 16
32 25 22 20 18 17 8 4 6 8 8 14 16 10 9 8 4 6 14 10 17 19 7 6 6 8 13 11 8 5 7 3 4 2 6 1 6 16 18 9 14 16 14 11 5
30 27 21 20 18 15 3 4 4 2 5 6 8 2 8 8 5 4 5 7 5 13 9 4 3 3 3 6 16 8 6 4 3 5 7 3 9 12 25 21 5 18 16 9 6
29 14 17 23 20 5 4 6 7 4 2 3 7 9 9 8 8 6 5 5 5 5 9 6 5 5 6 5 6 4 4 5 3 4 5 8 10 8 4 3 7 23 12 13 13
11 7 19 25 8 4 7 9 7 9 6 8 9 11 8 6 7 6 7 5 4 3 4 7 2 4 3 4 5 2 4 2 3 5 4 8 14 7 4 10 10 19 8 10 17
8 10 12 19 7 5 8 8 8 6 6 5 6 5 5 8 8 9 7 4 3 1 4 2 0 5 6 9 7 9 7 4 2 2 19 9 8 7 5 18 22 22 10 16 29
8 6 5 3 5 19 20 11 11 11 9 13 11 14 13 9 6 12 10 5 2 4 3 2 4 9 10 15 10 13 17 15 17 9 15 25 33 33 25 25 28 11 16 29 35
5 4 6 7 8 19 11 12 22 9 7 6 8 6 10 8 8 8 6 8 5 6 2 3 7 9 17 23 25 23 29 26 29 30 20 28 32 29 29 26 23 14 33 43 39
7 9 7 9 13 21 2 13 17 11 5 7 14 14 9 10 4 11 8 6 4 7 3 2 3 5 8 16 17 23 29 28 26 29 31 32 32 17 19 16 13 33 43 43 26
8 17 9 1 6 7 6 13 16 18 10 8 30 19 15 16 12 13 9 10 5 3 5 3 3 2 7 18 24 11 4 10 10 9 16 18 20 20 12 19 33 42 38 21 15
Wind_Direction_500mb
267 260 248 237 232 226 218 202 188 172 165 143 136 147 137 120 92 70 48 19 40 141 188 193 208 140 110 87 70 128 146 131 135 158 140 151 158 137 147 147 148 151 105 138 165
262 252 241 229 224 215 203 190 171 162 152 138 134 150 138 115 80 64 44 39 49 129 144 141 137 134 115 106 63 275 131 103 91 116 135 155 177 133 179 156 161 154 132 150 166
254 241 229 222 216 203 184 171 161 153 146 131 133 158 144 120 92 42 44 42 61 133 126 126 120 115 107 114 95 63 102 129 126 124 146 144 158 169 165 175 147 161 161 167 173
249 235 224 212 197 182 169 160 151 150 139 128 131 168 162 122 102 7 51 48 79 129 134 131 146 145 119 107 104 114 101 107 135 155 173 182 152 188 211 101 112 161 162 169 180
244 227 202 189 178 167 158 151 149 143 132 127 136 144 125 118 82 68 54 61 79 120 139 141 133 118 108 116 109 112 123 116 132 146 121 140 168 325 219 210 207 184 171 180 179
214 190 177 168 161 155 150 147 142 132 130 129 143 148 151 109 91 57 57 66 87 90 108 139 147 128 110 111 87 116 119 118 145 153 95 247 159 265 98 74 182 196 194 191 191
157 156 156 152 150 148 146 142 134 134 123 126 140 140 127 109 87 41 30 158 146 113 98 130 154 192 122 107 104 136 140 127 87 143 79 283 205 164 29 254 207 213 209 206 202
136 140 142 144 145 145 142 138 138 124 115 132 134 135 111 106 75 26 162 161 158 139 130 117 99 103 94 124 126 152 198 202 75 122 49 281 131 130 346 312 242 215 225 212 208
132 134 138 143 144 143 142 143 133 119 125 133 145 138 117 60 23 133 163 157 150 144 132 119 91 93 143 180 166 167 140 85 147 50 322 315 299 39 332 313 255 240 238 221 210
128 131 136 140 142 142 143 139 123 115 110 128 140 138 103 52 48 126 134 160 156 138 125 119 98 135 87 250 184 129 181 152 300 51 318 281 299 357 359 345 248 235 224 211 202
128 125 129 138 143 146 144 130 126 100 87 74 104 88 105 66 58 97 133 111 132 106 124 38 108 65 57 44 50 51 284 289 53 85 321 1 328 35 33 48 76 80 118 144 155
130 130 137 144 147 148 151 166 138 130 92 83 88 79 69 77 81 48 115 113 98 113 135 153 80 79 68 56 3 289 289 32 18 92 312 332 95 74 52 53 59 77 91 109 117
137 125 132 140 146 154 162 159 145 125 105 66 62 52 39 56 47 14 41 84 82 103 117 86 76 137 10 55 332 31 345 1 305 298 211 267 119 111 73 73 80 78 87 82 79
146 143 135 146 153 152 148 156 163 156 119 55 47 29 354 106 60 23 42 61 89 110 90 77 86 104 101 66 343 299 19 309 282 260 221 269 145 80 96 93 74 70 66 58 57
159 153 148 144 155 145 147 146 163 174 145 144 72 59 50 85 107 23 33 72 85 99 245 90 98 59 55 21 343 23 319 315 290 239 239 153 257 103 118 91 71 63 54 51 49
168 166 153 145 167 161 149 143 137 243 129 145 150 127 100 61 53 50 55 69 93 76 76 99 98 32 13 312 272 322 270 196 176 199 215 96 309 125 34 47 86 52 39 32 31
175 172 167 167 157 163 161 139 200 258 168 139 127 116 92 54 63 56 64 57 47 180 80 144 71 70 4 307 179 342 287 225 217 205 36 134 265 64 106 78 52 44 42 42 48
175 174 166 174 168 166 155 186 220 111 148 106 124 95 85 24 58 50 79 65 44 17 91 6 152 13 359 6 341 11 354 17 304 305 316 191 206 167 126 79 70 68 59 50 52
168 168 170 165 170 167 176 190 153 165 128 144 135 133 105 82 83 86 56 55 30 11 36 352 96 87 53 29 310 35 49 18 119 148 256 135 144 161 175 105 53 49 34 25 24
154 161 167 173 169 158 116 105 119 130 129 166 127 307 136 117 130 105 70 32 73 25 336 58 200 58 120 251 63 26 114 238 36 334 297 284 253 287 199 227 331 2 355 350 323
143 138 167 163 157 146 144 112 125 98 79 24 119 119 105 119 100 95 93 107 36 71 42 17 309 107 235 2 339 176 152 71 69 321 288 303 304 68 145 197 338 340 318 313 314
159 143 164 159 144 78 128 116 114 117 90 93 87 91 113 101 93 106 137 71 27 338 30 34 36 273 14 90 336 320 135 103 289 206 233 323 276 102 237 183 281 327 277 289 307
117 107 150 171 149 117 125 103 79 131 53 107 104 73 116 120 118 123 122 109 46 69 33 116 217 289 177 171 196 239 186 129 123 230 239 232 267 139 183 260 327 320 321 316 324
136 126 96 135 116 147 142 135 117 67 78 82 106 119 125 106 75 140 139 138 44 84 109 240 233 255 287 318 317 257 260 262 242 242 265 259 282 297 315 328 319 298 319 324 321
110 98 141 151 144 141 127 149 141 133 93 105 111 164 140 118 112 129 143 151 129 144 114 299 275 283 283 287 284 283 273 266 243 244 263 274 297 312 326 326 320 304 320 323 322
132 145 91 88 127 138 69 151 154 126 157 125 144 122 125 129 154 163 157 213 204 153 150 23 286 348 287 296 289 289 273 260 258 257 260 273 283 329 326 318 305 317 316 313 313
123 137 127 9 127 165 138 146 151 132 55 90 134 117 95 106 92 73 75 70 86 216 185 262 194 351 285 320 317 277 254 170 206 239 273 275 321 319 324 322 314 317 318 313 313
Wind_Speed_850mb
28 26 23 25 25 23 21 19 20 23 21 22 16 13 18 21 20 20 13 11 12 6 7 2 5 14 16 9 7 5 12 17 16 17 18 16 13 8 5 16 7 6 8 19 38
23 23 23 24 25 23 21 21 25 27 26 22 15 18 30 26 21 18 20 18 12 7 7 13 21 16 12 8 4 3 11 10 7 10 21 16 7 13 10 13 11 14 10 25 39
20 20 23 25 23 21 22 26 31 30 27 19 15 26 27 18 10 16 17 21 14 11 21 25 27 15 17 12 5 5 16 17 14 14 12 14 13 9 9 13 14 15 19 32 37
19 19 20 19 21 23 29 35 34 32 23 17 18 24 18 4 6 8 14 19 18 26 28 18 12 12 9 15 15 23 17 11 13 12 10 12 8 8 11 14 7 9 18 31 35
16 14 16 20 24 31 37 38 37 29 20 17 20 25 20 15 11 7 9 13 17 19 16 16 16 15 15 25 28 26 18 14 10 13 7 4 5 3 7 9 7 15 22 26 25
13 16 20 25 32 39 41 41 35 25 18 17 22 24 16 16 13 14 4 7 11 11 11 8 7 18 19 13 4 14 15 11 9 10 4 7 5 6 10 6 12 16 20 25 24
15 20 27 35 42 43 44 41 31 24 18 21 24 24 14 10 12 10 2 5 7 11 10 16 17 3 12 19 11 20 21 13 13 6 4 7 16 11 7 1 6 12 20 26 29
26 32 38 43 44 45 44 37 31 23 20 24 32 21 12 10 5 5 8 12 11 12 17 22 24 17 7 17 10 9 9 12 14 4 5 11 17 14 9 13 16 16 13 31 36
31 35 38 41 43 46 42 36 27 20 20 24 22 12 13 6 3 3 21 13 14 18 18 18 16 12 9 13 13 5 4 3 12 8 8 5 6 8 19 21 25 24 21 28 36
32 35 37 39 43 42 38 31 22 20 23 19 14 16 6 8 8 12 18 19 11 17 10 4 5 9 6 8 1 4 4 4 6 8 11 8 8 10 22 16 5 9 15 22 30
35 36 36 38 39 38 36 32 18 14 15 10 14 17 10 6 23 9 17 15 10 8 5 10 5 12 15 14 9 3 4 5 2 6 17 3 5 16 19 18 15 11 11 17 23
33 33 34 36 37 36 28 10 15 26 23 21 21 20 25 19 15 22 10 4 3 8 5 8 14 11 10 9 2 3 5 3 2 1 9 5 7 14 21 24 21 22 24 23 25
31 32 29 31 29 25 22 20 32 20 16 15 16 10 5 20 19 23 15 9 15 13 8 7 12 6 1 8 8 2 3 8 11 12 6 5 13 11 13 22 25 28 28 27 24
27 23 25 27 23 30 25 24 22 11 6 6 3 8 7 4 11 21 11 4 6 16 15 14 6 4 3 7 13 4 5 17 15 12 6 4 8 12 8 18 20 19 20 21 19
26 21 19 15 25 16 21 18 17 5 5 1 8 8 15 8 2 24 16 14 11 9 8 7 7 6 8 7 10 9 15 11 6 10 8 7 11 14 7 14 15 22 21 20 16
27 22 16 16 20 21 17 12 8 5 6 7 3 9 14 23 13 10 14 19 7 13 19 12 5 7 9 4 3 10 7 2 2 4 8 3 9 11 4 7 11 16 22 22 19
29 24 19 17 17 21 14 8 7 5 3 12 11 9 14 11 14 20 25 22 8 5 4 7 9 5 14 9 8 16 5 4 5 7 2 2 11 16 12 12 15 19 22 22 20
31 25 20 17 19 19 13 5 7 4 3 6 10 15 9 7 12 12 9 18 25 12 6 5 7 16 19 10 12 12 11 6 5 4 4 6 7 13 15 17 20 19 17 16 16
32 25 22 20 18 17 8 4 6 8 8 14 16 10 9 8 4 6 14 10 17 19 7 6 6 8 13 11 8 5 7 3 4 2 6 1 6 16 18 9 14 16 14 11 5
30 27 21 20 18 15 3 4 4 2 5 6 8 2 8 8 5 4 5 7 5 13 9 4 3 3 3 6 16 8 6 4 3 5 7 3 9 12 25 21 5 18 16 9 6
29 14 17 23 20 5 4 6 7 4 2 3 7 9 9 8 8 6 5 5 5 5 9 6 5 5 6 5 6 4 4 5 3 4 5 8 10 8 4 3 7 23 12 13 13
11 7 19 25 8 4 7 9 7 9 6 8 9 11 8 6 7 6 7 5 4 3 4 7 2 4 3 4 5 2 4 2 3 5 4 8 14 7 4 10 10 19 8 10 17
8 10 12 19 7 5 8 8 8 6 6 5 6 5 5 8 8 9 7 4 3 1 4 2 0 5 6 9 7 9 7 4 2 2 19 9 8 7 5 18 22 22 10 16 29
8 6 5 3 5 19 20 11 11 11 9 13 11 14 13 9 6 12 10 5 2 4 3 2 4 9 10 15 10 13 17 15 17 9 15 25 33 33 25 25 28 11 16 29 35
5 4 6 7 8 19 11 12 22 9 7 6 8 6 10 8 8 8 6 8 5 6 2 3 7 9 17 23 25 23 29 26 29 30 20 28 32 29 29 26 23 14 33 43 39
7 9 7 9 13 21 2 13 17 11 5 7 14 14 9 10 4 11 8 6 4 7 3 2 3 5 8 16 17 23 29 28 26 29 31 32 32 17 19 16 13 33 43 43 26
8 17 9 1 6 7 6 13 16 18 10 8 30 19 15 16 12 13 9 10 5 3 5 3 3 2 7 18 24 11 4 10 10 9 16 18 20 20 12 19 33 42 38 21 15
Wind_Direction_850mb
267 260 248 237 232 226 218 202 188 172 165 143 136 147 137 120 92 70 48 19 40 141 188 193 208 140 110 87 70 128 146 131 135 158 140 151 158 137 147 147 148 151 105 138 165
262 252 241 229 224 215 203 190 171 162 152 138 134 150 138 115 80 64 44 39 49 129 144 141 137 134 115 106 63 275 131 103 91 116 135 155 177 133 179 156 161 154 132 150 166
254 241 229 222 216 203 184 171 161 153 146 131 133 158 144 120 92 42 44 42 61 133 126 126 120 115 107 114 95 63 102 129 126 124 146 144 158 169 165 175 147 161 161 167 173
249 235 224 212 197 182 169 160 151 150 139 128 131 168 162 122 102 7 51 48 79 129 134 131 146 145 119 107 104 114 101 107 135 155 173 182 152 188 211 101 112 161 162 169 180
244 227 202 189 178 167 158 151 149 143 132 127 136 144 125 118 82 68 54 61 79 120 139 141 133 118 108 116 109 112 123 116 132 146 121 140 168 325 219 210 207 184 171 180 179
214 190 177 168 161 155 150 147 142 132 130 129 143 148 151 109 91 57 57 66 87 90 108 139 147 128 110 111 87 116 119 118 145 153 95 247 159 265 98 74 182 196 194 191 191
157 156 156 152 150 148 146 142 134 134 123 126 140 140 127 109 87 41 30 158 146 113 98 130 154 192 122 107 104 136 140 127 87 143 79 283 205 164 29 254 207 213 209 206 202
136 140 142 144 145 145 142 138 138 124 115 132 134 135 111 106 75 26 162 161 158 139 130 117 99 103 94 124 126 152 198 202 75 122 49 281 131 130 346 312 242 215 225 212 208
132 134 138 143 144 143 142 143 133 119 125 133 145 138 117 60 23 133 163 157 150 144 132 119 91 93 143 180 166 167 140 85 147 50 322 315 299 39 332 313 255 240 238 221 210
128 131 136 140 142 142 143 139 123 115 110 128 140 138 103 52 48 126 134 160 156 138 125 119 98 135 87 250 184 129 181 152 300 51 318 281 299 357 359 345 248 235 224 211 202
128 125 129 138 143 146 144 130 126 100 87 74 104 88 105 66 58 97 133 111 132 106 124 38 108 65 57 44 50 51 284 289 53 85 321 1 328 35 33 48 76 80 118 144 155
130 130 137 144 147 148 151 166 138 130 92 83 88 79 69 77 81 48 115 113 98 113 135 153 80 79 68 56 3 289 289 32 18 92 312 332 95 74 52 53 59 77 91 109 117
137 125 132 140 146 154 162 159 145 125 105 66 62 52 39 56 47 14 41 84 82 103 117 86 76 137 10 55 332 31 345 1 305 298 211 267 119 111 73 73 80 78 87 82 79
146 143 135 146 153 152 148 156 163 156 119 55 47 29 354 106 60 23 42 61 89 110 90 77 86 104 101 66 343 299 19 309 282 260 221 269 145 80 96 93 74 70 66 58 57
159 153 148 144 155 145 147 146 163 174 145 144 72 59 50 85 107 23 33 72 85 99 245 90 98 59 55 21 343 23 319 315 290 239 239 153 257 103 118 91 71 63 54 51 49
168 166 153 145 167 161 149 143 137 243 129 145 150 127 100 61 53 50 55 69 93 76 76 99 98 32 13 312 272 322 270 196 176 199 215 96 309 125 34 47 86 52 39 32 31
175 172 167 167 157 163 161 139 200 258 168 139 127 116 92 54 63 56 64 57 47 180 80 144 71 70 4 307 179 342 287 225 217 205 36 134 265 64 106 78 52 44 42 42 48
175 174 166 174 168 166 155 186 220 111 148 106 124 95 85 24 58 50 79 65 44 17 91 6 152 13 359 6 341 11 354 17 304 305 316 191 206 167 126 79 70 68 59 50 52
168 168 170 165 170 167 176 190 153 165 128 144 135 133 105 82 83 86 56 55 30 11 36 352 96 87 53 29 310 35 49 18 119 148 256 135 144 161 175 105 53 49 34 25 24
154 161 167 173 169 158 116 105 119 130 129 166 127 307 136 117 130 105 70 32 73 25 336 58 200 58 120 251 63 26 114 238 36 334 297 284 253 287 199 227 331 2 355 350 323
143 138 167 163 157 146 144 112 125 98 79 24 119 119 105 119 100 95 93 107 36 71 42 17 309 107 235 2 339 176 152 71 69 321 288 303 304 68 145 197 338 340 318 313 314
159 143 164 159 144 78 128 116 114 117 90 93 87 91 113 101 93 106 137 71 27 338 30 34 36 273 14 90 336 320 135 103 289 206 233 323 276 102 237 183 281 327 277 289 307
117 107 150 171 149 117 125 103 79 131 53 107 104 73 116 120 118 123 122 109 46 69 33 116 217 289 177 171 196 239 186 129 123 230 239 232 267 139 183 260 327 320 321 316 324
136 126 96 135 116 147 142 135 117 67 78 82 106 119 125 106 75 140 139 138 44 84 109 240 233 255 287 318 317 257 260 262 242 242 265 259 282 297 315 328 319 298 319 324 321
110 98 141 151 144 141 127 149 141 133 93 105 111 164 140 118 112 129 143 151 129 144 114 299 275 283 283 287 284 283 273 266 243 244 263 274 297 312 326 326 320 304 320 323 322
132 145 91 88 127 138 69 151 154 126 157 125 144 122 125 129 154 163 157 213 204 153 150 23 286 348 287 296 289 289 273 260 258 257 260 273 283 329 326 318 305 317 316 313 313
123 137 127 9 127 165 138 146 151 132 55 90 134 117 95 106 92 73 75 70 86 216 185 262 194 351 285 320 317 277 254 170 206 239 273 275 321 319 324 322 314 317 318 313 313